Weather Roundup
Issued by NWS Chicago, IL

Home | Current Version | Previous Version | Text Only | Print | Product List | Glossary On
Versions: 1 2 3 4 5 6 7 8 9 10 11 12 13 14 15 16 17 18 19 20 21 22 23 24 25 26 27 28 29 30 31 32 33 34 35 36 37 38 39 40 41 42 43 44 45 46 47 48 49 50
000
NZUS59 KLOT 220908
HRRLOT

CHICAGO AREA WEATHER ROUNDUP
NATIONAL WEATHER SERVICE CHICAGO/ROMEOVILLE IL
400 AM CDT FRI MAY 22 2015

NOTE: "FAIR" INDICATES FEW OR NO CLOUDS BELOW 12,000 FEET WITH NO
SIGNIFICANT WEATHER AND/OR OBSTRUCTIONS TO VISIBILITY.

* THESE STATIONS ARE NOT UNDER NWS QUALITY CONTROL. THEY ALSO MAY NOT
  REPORT WEATHER SUCH AS PRECIPITATION OR FOG.

ILZ005-006-012>014-019>023-221000-
NORTHEAST ILLINOIS

CITY           SKY/WX    TMP DP  RH WIND       PRES   REMARKS
OHARE          CLEAR     49  40  71 N9        30.08R
MIDWAY         CLEAR     55  43  63 W3        30.07R
AURORA         CLEAR     47  40  76 N6        30.07R
LANSING*       CLEAR     51  42  70 CALM      30.08R
JOLIET*        CLEAR     53  46  77 CALM      30.07R
WAUKEGAN       CLEAR     45  38  76 N5        30.09R
DUPAGE AIRPORT CLEAR     47  41  80 N3        30.07R
WHEELING       CLEAR     47  39  74 N6        30.10R
KANKAKEE*      CLEAR     52  46  78 SW6       30.08R
MORRIS*        CLEAR     49  44  81 W8        30.05R
LEWIS AIRPORT* CLEAR     50  44  78 NW3       30.07R
NORTHERLY IS     N/A     50  43  77 N12         N/A
$$

WIZ051-052-058>065-066-070>072-221000-
SOUTHEAST WISCONSIN

CITY           SKY/WX    TMP DP  RH WIND       PRES   REMARKS
MILWAUKEE      CLEAR     45  32  60 N5        30.11R
KENOSHA*       CLEAR     45  36  70 NE6       30.10R
RACINE*        CLEAR     44  34  67 NE5       30.11R
BURLINGTON     CLEAR     40  32  75 CALM      30.10R
WAUKESHA       CLEAR     39  32  75 CALM      30.12R
WEST BEND      CLEAR     37  34  87 CALM      30.11R
$$

INZ001>003-010>013-019-020-221000-
NORTHWEST INDIANA

CITY           SKY/WX    TMP DP  RH WIND       PRES   REMARKS
GARY*          CLEAR     47  43  85 CALM      30.08R
MICHIGAN CITY* NOT AVBL
RENSSELAER*    NOT AVBL
VALPARAISO     CLEAR     50  41  71 CALM      30.08R
$$

LMZ740>746-221000-
SOUTHERN LAKE MICHIGAN

STATION/POSITION TIME  SKY/WX   TEMP WIND        PRES    VSBY
                                AIR  DIR/SP/G
                 (UTC)          (F)  (DEG/KT/KT) (MB)    (MI)
HARRISON CRIB    0800            54  120/  4/  4   N/A
BURNHAM HARBOR   0900            50  340/  9/ 13   N/A
CALUMET HARBOR   0800            56  350/  3/  4   N/A
BURNS HARBOR     0800            58  200/  4/  5 1018.3S
MICHIGAN CITY    0815            55  160/  3/  4   N/A
$$

ABBREVIATIONS USED IN REMARKS
   TC - TEMPERATURE IN CELSIUS
  WCI - WIND CHILL INDEX
   HX - HEAT INDEX
  VSB - VISIBILITY
$$


USA.gov is the U.S. government's official web portal to all federal, state and local government web resources and services.